Weather in Yatagan

Turkey     37°20′39″N   28°08′17″E
temp.,
°C
wind,
m/s
gust,
m/s
humid.,
%
clouds,
%
prec.,
mm/h
press.,
hPa
HPBL,
m
13 june, sun
sun1300:00+16nne11750 0.0 101413
03:00+15n22790 0.0 101416
06:00+14n12800 0.0 101314
09:00+20nw23570 0.0 1013533
12:00+25wnw32386 0.0 10121681
15:00+26wsw543415 0.0 10112218
18:00+25nw554257 0.1 10101723
21:00+18nnw226058 0.3 101228
14 june, mon
mon1400:00+16n22625 0.0 101222
03:00+15n22681 0.0 101124
06:00+14n227373 0.0 101024
09:00+19nnw3359100 0.0 1010526
12:00+22nnw444889 0.1 10101024
15:00+23nw564230 0.3 10091606
18:00+22nw66394 0.0 10081917
21:00+16nnw36670 0.0 1010123
15 june, tue
tue1500:00+14n22751 0.0 101121
03:00+13n11815 0.0 101115
06:00+12n22833 0.0 101126
09:00+17nw33555 0.0 1011792
12:00+21nw443516 0.0 10111818
15:00+20nw443680 0.0 10101606
18:00+21wnw553814 0.0 10101535
21:00+15nw22601 0.0 101223
16 june, wed
wed1600:00+14n21640 0.0 101213
03:00+13n22670 0.0 101321
06:00+11n22730 0.0 101324
09:00+18nnw33482 0.0 1012731
12:00+23nw543442 0.0 10122223
15:00+24nw642896 0.0 10112474
18:00+21nnw674324 0.0 1013942
21:00+15nnw35640 0.0 101597
17 june, thu
thu1700:00+13nnw22740 0.0 101643
03:00+12nnw22800 0.0 101741
06:00+12nnw23830 0.0 101649
09:00+19nnw45560 0.0 1016676
12:00+25nnw45340 0.0 10151463
15:00+28nnw44280 0.0 10142057
18:00+28n43290 0.0 10142162
21:00+21ne22480 0.0 101517